Waarnemingen

Advertentie
Mijn weer
Maastricht, Nederland (6380): temperatuur & dauwpunt: 03.12.2018 21:00:00 - 09.12.2018 21:00:00 (CET)Maastricht, Nederland (6380): temperatuur 5cm: 03.12.2018 21:00:00 - 09.12.2018 21:00:00 (CET)Maastricht, Nederland (6380): windsnelheid & windstoten: 03.12.2018 21:00:00 - 09.12.2018 21:00:00 (CET)Maastricht, Nederland (6380): windrichting: 03.12.2018 21:00:00 - 09.12.2018 21:00:00 (CET)Maastricht, Nederland (6380): luchtdruk: 03.12.2018 21:00:00 - 09.12.2018 21:00:00 (CET)Maastricht, Nederland (6380): zicht: 03.12.2018 21:00:00 - 09.12.2018 21:00:00 (CET)Maastricht, Nederland (6380): neerslag: 03.12.2018 21:00:00 - 09.12.2018 21:00:00 (CET)
Datum & Tijd tt [°C] td [°C] tt 5cm [°C] ff [km/u] ff [kn] fx [km/u] fx [kn] dd ppp [hPa] vv [km] rr [mm]
09.12.2018 21:00:00 6,5 4,3 6,1 13 7 36 19 W 1014,2 10 0,0
09.12.2018 20:00:00 6,4 4,6 5,9 16 9 36 19 W 1013,3 10 0,0
09.12.2018 19:00:00 6,6 5,1 5,9 18 10 32 18 WNW 1011,8 10 0,6
09.12.2018 18:00:00 6,4 5,1 5,8 16 9 43 23 WNW 1010,2 10 1,8
09.12.2018 17:00:00 7,4 6,0 7,1 15 8 36 19 WNW 1008,5 10 0,2
09.12.2018 16:00:00 7,4 5,5 6,8 15 8 29 16 WNW 1006,5 10 0,6
09.12.2018 15:00:00 8,3 6,7 8,5 16 9 40 21 WNW 1004,9 10 0,0
09.12.2018 14:00:00 7,8 7,0 7,7 16 9 36 19 W 1003,1 8 1,0
09.12.2018 13:00:00 7,0 6,1 7,0 15 8 29 16 W 1002,2 10 1,8
09.12.2018 12:00:00 5,9 5,5 5,7 13 7 47 25 W 1001,6 9 4,8
09.12.2018 11:00:00 5,8 4,2 5,5 22 12 47 25 NW 1001,3 5 2,9
09.12.2018 10:00:00 7,8 6,1 7,5 18 10 40 21 WZW 1000,4 10 0,5
09.12.2018 09:00:00 8,9 4,4 8,4 24 13 47 25 WZW 999,9 10 0,0
09.12.2018 08:00:00 8,8 4,2 8,3 22 12 47 25 WZW 999,1 10 0,0
09.12.2018 07:00:00 8,8 4,2 8,1 26 14 54 29 WZW 998,6 10 0,0
09.12.2018 06:00:00 8,8 4,9 8,0 28 15 54 29 WZW 997,9 10 0,1
09.12.2018 05:00:00 9,0 4,9 8,4 28 15 54 29 WZW 997,5 10 0,0
09.12.2018 04:00:00 9,2 5,5 8,7 24 13 47 25 WZW 997,1 10 0,0
09.12.2018 03:00:00 9,0 5,1 8,3 28 15 54 29 W 997,2 10 0,0
09.12.2018 02:00:00 9,3 5,5 8,6 24 13 50 27 WZW 997,2 10 0,0
09.12.2018 01:00:00 9,1 6,4 8,5 21 11 50 27 W 996,6 10 1,2
09.12.2018 00:00:00 10,0 6,5 9,4 31 17 61 33 WZW 996,4 10 0,0
08.12.2018 23:00:00 10,2 7,5 9,6 29 16 50 27 WZW 996,5 10 0,0
08.12.2018 22:00:00 10,2 8,1 9,6 35 19 58 31 WZW 996,8 10 0,9
08.12.2018 21:00:00 9,3 8,6 8,9 37 20 58 31 ZW 997,5 4,4 4,7
08.12.2018 20:00:00 9,2 7,9 8,8 39 21 58 31 ZW 998,9 10 0,9
08.12.2018 19:00:00 8,7 7,6 8,5 39 21 68 37 ZW 1000,7 10 0,9
08.12.2018 18:00:00 8,6 7,6 8,4 34 18 50 27 ZW 1002,6 7 0,2
08.12.2018 17:00:00 9,7 6,5 9,3 29 16 43 23 ZW 1003,9 10 0,0
08.12.2018 16:00:00 9,7 6,0 9,3 31 17 47 25 ZW 1004,4 10 0,0
08.12.2018 15:00:00 10,2 5,2 9,6 24 13 50 27 WZW 1004,8 10 0,0
08.12.2018 14:00:00 9,7 5,6 9,4 28 15 47 25 WZW 1005,1 10 0,0
08.12.2018 13:00:00 9,4 5,4 9,0 28 15 50 27 WZW 1005,3 10 0,0
08.12.2018 12:00:00 8,7 5,5 8,5 29 16 50 27 WZW 1005,5 10 0,0
08.12.2018 11:00:00 8,6 5,3 8,3 35 19 50 27 WZW 1005,4 10 0,0
08.12.2018 10:00:00 7,8 5,1 7,3 34 18 50 27 ZW 1005,1 10 0,0
08.12.2018 09:00:00 7,4 4,8 6,9 34 18 50 27 ZW 1005,3 10 0,0
08.12.2018 08:00:00 6,6 4,6 6,4 41 22 54 29 ZW 1005,5 10 0,1
08.12.2018 07:00:00 6,3 4,7 5,9 37 20 54 29 ZW 1005,8 10 0,0
08.12.2018 06:00:00 7,0 4,2 6,6 39 21 54 29 ZW 1006,1 10 0,0
08.12.2018 05:00:00 6,6 4,1 6,2 37 20 54 29 ZW 1006,1 10 0,0
08.12.2018 04:00:00 6,3 3,7 5,5 37 20 50 27 ZW 1006,5 10 0,0
08.12.2018 03:00:00 6,1 3,4 5,4 29 16 47 25 ZW 1007,1 10 0,0
08.12.2018 02:00:00 6,3 3,7 5,7 31 17 50 27 ZW 1007,4 10 0,0
08.12.2018 01:00:00 6,3 3,9 5,6 31 17 47 25 ZW 1007,0 10 0,0
08.12.2018 00:00:00 6,1 3,6 5,3 28 15 36 19 ZW 1006,9 10 0,0
07.12.2018 23:00:00 6,3 3,4 5,5 21 11 36 19 WZW 1006,5 10 0,0
07.12.2018 22:00:00 6,9 4,6 6,5 21 11 40 21 WZW 1005,8 10 0,0
07.12.2018 21:00:00 6,6 3,8 6,0 21 11 32 18 WZW 1004,7 10 0,0
07.12.2018 20:00:00 6,8 5,5 6,5 13 7 50 27 WZW 1003,3 10 0,8
07.12.2018 19:00:00 7,6 6,5 7,5 28 15 47 25 W 1001,8 9 2,7
07.12.2018 18:00:00 8,6 7,3 8,3 26 14 47 25 WZW 1000,0 10 3,0
07.12.2018 17:00:00 9,9 8,8 9,7 37 20 54 29 ZZW 998,9 10 1,2
07.12.2018 16:00:00 10,0 8,8 9,8 35 19 54 29 ZZW 1000,0 9 1,0
07.12.2018 15:00:00 10,9 8,0 10,6 41 22 58 31 ZZW 1001,3 10 0,0
07.12.2018 14:00:00 11,2 9,1 11,0 52 28 68 37 ZW 1002,9 10 0,0
07.12.2018 13:00:00 12,1 8,9 11,8 42 23 65 35 ZZW 1003,7 10 0,0
07.12.2018 12:00:00 11,7 9,2 11,4 34 18 - - ZW 1006,4 10 -
07.12.2018 11:00:00 11,5 9,2 11,2 37 20 47 25 ZZW 1007,8 10 0,0
07.12.2018 10:00:00 10,9 9,5 10,6 31 17 47 25 ZZW 1009,1 10 0,0
07.12.2018 09:00:00 10,6 9,5 10,3 29 16 40 21 ZZW 1010,0 10 0,0
07.12.2018 08:00:00 10,4 9,9 10,3 31 17 43 23 ZZW 1010,7 3,1 0,6
07.12.2018 07:00:00 10,7 10,1 10,5 29 16 40 21 ZZW 1011,2 6 0,4
07.12.2018 06:00:00 10,6 10,1 10,5 28 15 40 21 ZW 1012,1 3,4 0,4
07.12.2018 05:00:00 10,9 10,1 10,8 29 16 43 23 ZW 1012,7 7 0,2
07.12.2018 04:00:00 10,7 10,3 10,6 28 15 40 21 ZW 1013,6 4,1 0,2
07.12.2018 03:00:00 10,9 10,1 10,7 29 16 40 21 ZW 1014,3 6 0,2
07.12.2018 02:00:00 11,0 10,0 10,8 28 15 43 23 ZW 1015,0 9 0,2
07.12.2018 01:00:00 11,6 9,7 11,3 29 16 43 23 ZW 1015,7 9 0,0
07.12.2018 00:00:00 11,6 9,9 11,1 22 12 43 23 ZW 1016,1 10 0,0
06.12.2018 23:00:00 12,0 9,6 11,7 28 15 36 19 ZW 1016,5 10 0,0
06.12.2018 22:00:00 12,0 10,5 11,7 26 14 40 21 ZW 1016,8 10 0,0
06.12.2018 21:00:00 12,1 10,5 11,8 29 16 40 21 ZW 1016,9 10 0,0
06.12.2018 20:00:00 12,1 10,4 11,9 28 15 40 21 ZW 1016,9 10 0,0
06.12.2018 19:00:00 12,2 10,1 11,9 26 14 36 19 ZW 1017,0 10 0,0
06.12.2018 18:00:00 12,1 10,1 11,8 26 14 36 19 ZW 1017,0 10 0,0
06.12.2018 17:00:00 12,2 9,9 11,9 29 16 40 21 ZW 1017,2 10 0,0
06.12.2018 16:00:00 12,2 9,6 11,9 26 14 36 19 ZW 1017,3 10 0,0
06.12.2018 15:00:00 12,2 9,4 11,9 26 14 32 18 ZW 1017,1 10 0,0
06.12.2018 14:00:00 12,3 10,0 12,2 24 13 36 19 ZW 1017,1 10 0,0
06.12.2018 13:00:00 12,1 10,2 11,8 18 10 32 18 WZW 1017,3 10 0,0
06.12.2018 12:00:00 12,0 10,1 11,9 22 12 36 19 ZW 1017,5 10 0,0
06.12.2018 11:00:00 11,5 10,0 11,2 26 14 29 16 ZW 1017,4 10 0,0
06.12.2018 10:00:00 11,1 10,2 10,9 22 12 25 14 ZZW 1016,5 9 0,0
06.12.2018 09:00:00 11,1 10,4 10,8 21 11 22 12 ZW 1016,5 8 0,0
06.12.2018 08:00:00 10,7 10,3 10,5 15 8 25 14 ZW 1015,7 3,1 0,2
06.12.2018 07:00:00 10,3 9,9 10,1 21 11 25 14 ZW 1015,0 3,5 0,1
06.12.2018 06:00:00 9,9 9,5 9,7 24 13 29 16 ZW 1014,3 10 0,1
06.12.2018 05:00:00 9,6 8,7 9,5 22 12 29 16 ZZW 1014,0 10 0,0
06.12.2018 04:00:00 9,7 8,4 9,5 28 15 36 19 ZZW 1013,6 10 0,0
06.12.2018 03:00:00 9,1 8,4 8,9 24 13 29 16 ZZW 1013,7 6 0,2
06.12.2018 02:00:00 9,5 7,9 9,2 26 14 32 18 ZZW 1013,7 10 0,2
06.12.2018 01:00:00 10,0 6,9 9,6 21 11 29 16 ZZW 1014,0 10 0,0
06.12.2018 00:00:00 9,7 6,5 9,2 18 10 25 14 ZZW 1014,1 10 0,0
05.12.2018 23:00:00 9,2 6,4 8,8 18 10 29 16 ZZW 1014,1 10 0,0
05.12.2018 22:00:00 9,0 6,2 8,5 18 10 29 16 ZZW 1014,7 10 0,1
05.12.2018 21:00:00 8,8 6,0 8,3 16 9 25 14 Z 1015,0 10 0,0
05.12.2018 20:00:00 9,3 5,8 8,7 18 10 29 16 Z 1015,6 10 0,0
05.12.2018 19:00:00 9,2 5,7 8,6 15 8 22 12 ZZO 1016,2 10 0,0
05.12.2018 18:00:00 8,7 5,5 8,3 18 10 29 16 ZZO 1016,9 10 0,0
05.12.2018 17:00:00 8,7 5,4 8,3 18 10 25 14 ZZO 1018,0 10 0,0
05.12.2018 16:00:00 8,8 5,3 8,4 15 8 25 14 Z 1018,8 10 0,0
05.12.2018 15:00:00 9,3 5,3 8,9 13 7 14 8 ZZO 1019,9 10 0,0
05.12.2018 14:00:00 9,7 5,4 9,5 13 7 22 12 ZZO 1020,7 10 0,0
05.12.2018 13:00:00 9,8 5,3 10,2 15 8 18 10 Z 1021,5 10 0,0
05.12.2018 12:00:00 8,6 5,1 8,2 11 6 18 10 ZZO 1022,2 10 0,0
05.12.2018 11:00:00 7,3 4,2 7,2 9 5 14 8 ZZO 1023,6 10 0,0
05.12.2018 10:00:00 6,3 3,5 5,8 13 7 25 14 ZZO 1023,7 10 0,0
05.12.2018 09:00:00 5,3 2,9 4,7 15 8 14 8 Z 1024,4 10 0,0
05.12.2018 08:00:00 4,5 2,2 3,9 13 7 18 10 Z 1024,6 10 0,0
05.12.2018 07:00:00 3,7 1,5 2,7 8 4 11 6 Z 1024,7 10 0,0
05.12.2018 06:00:00 3,0 0,9 1,3 8 4 11 6 Z 1025,0 10 0,0
05.12.2018 05:00:00 2,5 0,6 1,0 9 5 11 6 ZZO 1025,1 10 0,0
05.12.2018 04:00:00 2,7 0,8 1,3 8 4 14 8 ZZO 1025,2 10 0,0
05.12.2018 03:00:00 2,8 0,5 1,2 8 4 14 8 Z 1025,8 10 0,0
05.12.2018 02:00:00 1,4 0,0 -0,5 5 3 14 8 ZO 1025,8 10 0,0
05.12.2018 01:00:00 1,4 0,2 -1,5 5 3 11 6 ZZO 1026,2 10 0,0
05.12.2018 00:00:00 2,0 1,3 -1,6 4 2 11 6 ZO 1026,4 10 0,0
04.12.2018 23:00:00 2,1 1,4 -0,7 5 3 7 4 ZO 1026,4 10 0,0
04.12.2018 22:00:00 3,4 2,1 0,1 5 3 7 4 ZZO 1026,4 10 0,0
04.12.2018 21:00:00 2,8 2,3 -0,3 5 3 7 4 ZZO 1026,1 10 0,0
04.12.2018 20:00:00 3,6 3,0 0,9 5 3 7 4 ZZO 1025,7 10 0,0
04.12.2018 19:00:00 4,0 3,3 1,7 5 3 7 4 ZW 1025,4 10 0,0
04.12.2018 18:00:00 4,7 3,5 1,1 4 2 4 2 Z 1024,8 10 0,0
04.12.2018 17:00:00 5,7 3,2 2,7 4 2 4 2 ZW 1024,7 10 0,0
04.12.2018 16:00:00 7,4 3,7 5,4 4 2 7 4 N 1023,8 10 0,0
04.12.2018 15:00:00 8,4 4,1 9,0 4 2 14 8 - 1023,4 10 0,0
04.12.2018 14:00:00 8,8 4,6 9,5 5 3 11 6 NNW 1022,8 10 0,0
04.12.2018 13:00:00 8,3 5,3 9,6 8 4 11 6 NW 1022,0 10 0,0
04.12.2018 12:00:00 7,6 6,0 8,9 9 5 14 8 NNW 1021,6 10 0,0
04.12.2018 11:00:00 6,3 5,4 6,2 8 4 14 8 W 1021,1 10 0,0
04.12.2018 10:00:00 6,3 5,5 6,0 9 5 11 6 WZW 1020,0 10 0,0
04.12.2018 09:00:00 5,9 5,2 5,5 8 4 18 10 W 1018,6 10 0,2
04.12.2018 08:00:00 6,2 5,7 5,7 9 5 14 8 WNW 1017,3 7 0,0
04.12.2018 07:00:00 6,0 5,6 5,1 8 4 18 10 W 1015,9 10 0,0
04.12.2018 06:00:00 6,8 6,1 6,3 9 5 22 12 W 1014,8 10 0,0
04.12.2018 05:00:00 7,2 7,0 7,1 8 4 18 10 W 1013,5 8 0,1
04.12.2018 04:00:00 7,2 6,9 7,1 9 5 14 8 W 1012,7 10 0,0
04.12.2018 03:00:00 7,2 6,8 7,2 9 5 22 12 WNW 1012,0 4,5 0,4
04.12.2018 02:00:00 7,6 6,9 7,6 15 8 29 16 NW 1010,3 8 0,6
04.12.2018 01:00:00 9,3 7,1 9,0 21 11 40 21 NW 1009,1 10 0,0
04.12.2018 00:00:00 10,3 8,3 10,0 15 8 40 21 W 1007,1 5 0,0
03.12.2018 23:00:00 11,2 8,8 10,6 24 13 40 21 WZW 1005,2 10 0,0
03.12.2018 22:00:00 11,0 9,8 10,6 24 13 36 19 ZW 1003,8 8 0,2
03.12.2018 21:00:00 11,5 8,7 10,8 24 13 40 21 WZW 1002,8 10 0,0

tt = temperatuur
td = dauwpunt
tt 5cm = temperatuur 5cm
ff = windsnelheid
fx = windstoten
dd = windrichting
ppp = luchtdruk
vv = zicht
rr = neerslag

Weerstations in de omgeving